• In Romania
  • List of Countries
  • For 7 days
  • Water Temperature
  • Satellite Maps
  • Weather Map
  • Weather Widgets
  • user-avatar
    Login

    Hourly Weather Kandi

    Today, 20 October, Friday

    Time Temperature Precipitation Wind Pressure Humidity
    00:00 +26°C° 0 mm 1 mps 738 mmHg 30%
    01:00 +26°C° 0 mm 1 mps 738 mmHg 32%
    02:00 +26°C° 0 mm 1 mps 737 mmHg 34%
    03:00 +25°C° 0 mm 1 mps 737 mmHg 36%
    04:00 +25°C° 0 mm 1 mps 737 mmHg 39%
    05:00 +24°C° 0 mm 1 mps 737 mmHg 42%
    06:00 +24°C° 0 mm 1 mps 738 mmHg 44%
    07:00 +28°C° 0 mm 1 mps 738 mmHg 40%
    08:00 +31°C° 0 mm 1 mps 738 mmHg 35%
    09:00 +34°C° 0 mm 1 mps 739 mmHg 30%
    10:00 +36°C° 0 mm 1 mps 738 mmHg 24%
    11:00 +39°C° 0 mm 2 mps 738 mmHg 19%
    12:00 +41°C° 0 mm 2 mps 737 mmHg 13%
    13:00 +41°C° 0 mm 2 mps 737 mmHg 13%
    14:00 +41°C° 0 mm 2 mps 736 mmHg 12%
    15:00 +42°C° 0 mm 2 mps 735 mmHg 12%
    16:00 +39°C° 0 mm 2 mps 736 mmHg 14%
    17:00 +36°C° 0 mm 1 mps 736 mmHg 17%
    18:00 +33°C° 0 mm 1 mps 736 mmHg 20%
    19:00 +32°C° 0 mm 1 mps 737 mmHg 21%
    20:00 +31°C° 0 mm 1 mps 737 mmHg 23%
    21:00 +31°C° 0 mm 1 mps 738 mmHg 24%
    22:00 +30°C° 0 mm 1 mps 738 mmHg 27%
    23:00 +29°C° 0 mm 1 mps 738 mmHg 29%

    Tomorrow, 21 October, Saturday

    Time Temperature Precipitation Wind Pressure Humidity
    00:00 +28°C° 0 mm 1 mps 738 mmHg 32%
    01:00 +28°C° 0 mm 1 mps 737 mmHg 34%
    02:00 +25°C° 0 mm 0 mps 737 mmHg 37%
    03:00 +24°C° 0 mm 0 mps 737 mmHg 39%
    04:00 +24°C° 0 mm 0 mps 737 mmHg 41%
    05:00 +24°C° 0 mm 0 mps 737 mmHg 42%
    06:00 +24°C° 0 mm 0 mps 738 mmHg 43%
    07:00 +29°C° 0 mm 1 mps 738 mmHg 39%
    08:00 +32°C° 0 mm 1 mps 739 mmHg 35%
    09:00 +36°C° 0 mm 1 mps 739 mmHg 31%
    10:00 +39°C° 0 mm 1 mps 739 mmHg 25%
    11:00 +41°C° 0 mm 1 mps 738 mmHg 18%
    12:00 +43°C° 0 mm 2 mps 737 mmHg 12%
    13:00 +43°C° 0 mm 2 mps 737 mmHg 11%
    14:00 +43°C° 0 mm 2 mps 736 mmHg 10%
    15:00 +43°C° 0 mm 2 mps 735 mmHg 9%
    16:00 +40°C° 0 mm 1 mps 735 mmHg 11%
    17:00 +36°C° 0 mm 1 mps 735 mmHg 12%
    18:00 +33°C° 0 mm 1 mps 735 mmHg 14%
    19:00 +32°C° 0 mm 1 mps 736 mmHg 15%
    20:00 +31°C° 0 mm 1 mps 737 mmHg 16%
    21:00 +30°C° 0 mm 1 mps 737 mmHg 17%
    22:00 +30°C° 0 mm 1 mps 737 mmHg 20%
    23:00 +29°C° 0 mm 1 mps 737 mmHg 23%

    Day after tomorrow, 22 October, Sunday

    Time Temperature Precipitation Wind Pressure Humidity
    00:00 +29°C° 0 mm 1 mps 737 mmHg 25%
    01:00 +28°C° 0 mm 1 mps 737 mmHg 30%
    02:00 +28°C° 0 mm 1 mps 737 mmHg 34%
    03:00 +27°C° 0 mm 1 mps 736 mmHg 38%
    04:00 +27°C° 0 mm 1 mps 737 mmHg 44%
    05:00 +27°C° 0 mm 1 mps 737 mmHg 50%
    06:00 +26°C° 0 mm 1 mps 737 mmHg 55%
    07:00 +29°C° 0 mm 2 mps 738 mmHg 53%
    08:00 +31°C° 0 mm 2 mps 738 mmHg 51%
    09:00 +34°C° 0 mm 2 mps 739 mmHg 50%
    10:00 +38°C° 0 mm 2 mps 738 mmHg 40%
    11:00 +41°C° 0 mm 1 mps 738 mmHg 30%
    12:00 +41°C° 0 mm 0 mps 737 mmHg 20%
    13:00 +41°C° 0 mm 0 mps 736 mmHg 19%
    14:00 +41°C° 0 mm 0 mps 735 mmHg 17%
    15:00 +40°C° 0 mm 0 mps 735 mmHg 15%
    16:00 +37°C° 0 mm 0 mps 735 mmHg 18%
    17:00 +35°C° 0 mm 0 mps 735 mmHg 20%
    18:00 +32°C° 0 mm 0 mps 735 mmHg 23%
    19:00 +31°C° 0 mm 0 mps 736 mmHg 25%
    20:00 +32°C° 0 mm 1 mps 736 mmHg 26%
    21:00 +31°C° 0 mm 1 mps 737 mmHg 28%
    22:00 +31°C° 0 mm 1 mps 737 mmHg 32%
    23:00 +30°C° 0 mm 1 mps 737 mmHg 35%

    23 October, Monday

    Time Temperature Precipitation Wind Pressure Humidity
    00:00 +29°C° 0 mm 1 mps 737 mmHg 39%
    01:00 +29°C° 0 mm 2 mps 736 mmHg 48%
    02:00 +28°C° 0 mm 2 mps 736 mmHg 56%
    03:00 +28°C° 0 mm 2 mps 736 mmHg 65%
    04:00 +27°C° 0 mm 2 mps 736 mmHg 70%
    05:00 +27°C° 0 mm 2 mps 736 mmHg 76%
    06:00 +27°C° 0 mm 2 mps 737 mmHg 81%
    07:00 +29°C° 0 mm 3 mps 737 mmHg 71%
    08:00 +31°C° 0 mm 3 mps 737 mmHg 61%
    09:00 +35°C° 0 mm 3 mps 738 mmHg 51%
    10:00 +38°C° 0 mm 2 mps 737 mmHg 41%
    11:00 +42°C° 0 mm 1 mps 737 mmHg 30%
    12:00 +42°C° 0 mm 0 mps 736 mmHg 20%
    13:00 +41°C° 0 mm 0 mps 735 mmHg 19%
    14:00 +41°C° 0 mm 0 mps 735 mmHg 18%
    15:00 +40°C° 0 mm 0 mps 734 mmHg 18%
    16:00 +41°C° 0 mm 1 mps 734 mmHg 20%
    17:00 +37°C° 0 mm 1 mps 734 mmHg 23%
    18:00 +35°C° 0 mm 1 mps 734 mmHg 26%
    19:00 +34°C° 0 mm 1 mps 735 mmHg 29%
    20:00 +33°C° 0 mm 1 mps 735 mmHg 32%
    21:00 +32°C° 0 mm 1 mps 736 mmHg 36%
    22:00 +32°C° 0 mm 1 mps 736 mmHg 39%
    23:00 +31°C° 0 mm 2 mps 736 mmHg 42%

    24 October, Tuesday

    Time Temperature Precipitation Wind Pressure Humidity
    00:00 +31°C° 0 mm 2 mps 736 mmHg 46%
    01:00 +30°C° 0 mm 2 mps 736 mmHg 51%
    02:00 +30°C° 0 mm 2 mps 735 mmHg 56%
    03:00 +29°C° 0 mm 3 mps 735 mmHg 62%
    04:00 +29°C° 0 mm 2 mps 736 mmHg 65%
    05:00 +28°C° 0 mm 2 mps 736 mmHg 69%
    06:00 +28°C° 0 mm 1 mps 736 mmHg 73%
    07:00 +30°C° 0 mm 2 mps 737 mmHg 65%
    08:00 +32°C° 0 mm 2 mps 737 mmHg 57%
    09:00 +35°C° 0 mm 3 mps 737 mmHg 50%
    10:00 +38°C° 0 mm 2 mps 737 mmHg 40%
    11:00 +42°C° 0 mm 1 mps 736 mmHg 31%
    12:00 +42°C° 0 mm 0 mps 735 mmHg 21%
    13:00 +41°C° 0 mm 0 mps 735 mmHg 20%
    14:00 +43°C° 0 mm 1 mps 734 mmHg 20%
    15:00 +42°C° 0 mm 1 mps 733 mmHg 19%
    16:00 +40°C° 0 mm 1 mps 734 mmHg 22%
    17:00 +37°C° 0 mm 1 mps 734 mmHg 24%
    18:00 +35°C° 0 mm 1 mps 734 mmHg 27%
    19:00 +35°C° 0 mm 1 mps 735 mmHg 29%
    20:00 +34°C° 0 mm 1 mps 735 mmHg 31%
    21:00 +33°C° 0 mm 1 mps 736 mmHg 33%
    22:00 +33°C° 0 mm 1 mps 736 mmHg 35%
    23:00 +33°C° 0 mm 1 mps 736 mmHg 36%

    25 October, Wednesday

    Time Temperature Precipitation Wind Pressure Humidity
    00:00 +32°C° 0 mm 1 mps 735 mmHg 38%
    01:00 +32°C° 0 mm 1 mps 735 mmHg 41%
    02:00 +31°C° 0 mm 2 mps 735 mmHg 45%
    03:00 +30°C° 0 mm 2 mps 735 mmHg 48%
    04:00 +30°C° 0 mm 2 mps 736 mmHg 53%
    05:00 +29°C° 0 mm 2 mps 736 mmHg 57%
    06:00 +29°C° 0 mm 2 mps 737 mmHg 62%
    07:00 +31°C° 0 mm 2 mps 737 mmHg 56%
    08:00 +34°C° 0 mm 2 mps 737 mmHg 51%
    09:00 +36°C° 0 mm 2 mps 737 mmHg 46%
    10:00 +40°C° 0 mm 2 mps 737 mmHg 37%
    11:00 +43°C° 0 mm 1 mps 736 mmHg 28%
    12:00 +43°C° 0 mm 0 mps 735 mmHg 19%
    13:00 +41°C° 0 mm 0 mps 735 mmHg 21%
    14:00 +39°C° 0 mm 0 mps 734 mmHg 24%
    15:00 +36°C° 0 mm 0 mps 734 mmHg 26%
    16:00 +37°C° 0 mm 1 mps 734 mmHg 27%
    17:00 +36°C° 0 mm 1 mps 734 mmHg 29%
    18:00 +35°C° 0 mm 1 mps 735 mmHg 30%
    19:00 +34°C° 0 mm 1 mps 735 mmHg 32%
    20:00 +33°C° 0 mm 1 mps 736 mmHg 33%
    21:00 +32°C° 0 mm 1 mps 736 mmHg 35%
    22:00 +32°C° 0 mm 1 mps 736 mmHg 36%
    23:00 +31°C° 0 mm 1 mps 736 mmHg 38%
    Show more